[[{"header":{"parameterUnit":"m.s-1","parameterCategory":1,"la1":30.2991,"la2":30.254,"lo1":-89.0895,"lo2":-89.0444,"dy":0.0017,"dx":0.0017,"nx":28,"ny":28,"refTime":"2023-10-02T03:00:00:Z","depth":0,"parameterNumber":2,"parameterNumberName":"U-component_of_WINDS"},"data":[0,0,0,0,0,0,0,0,0,0,0,0,0,0,0,0,0,0,0,0,0,0,0,0,0,0,0,0,0,0,0,0,0,0,0,0,0,0,0,0,0,0,0,0,0,0,0,0,0,0,0,0,0,0,0,0,0,0,-3.2853,-3.2852,0,-3.2758,-3.2757,-3.2755,-3.2557,-3.2553,-3.2549,-3.2545,-3.2453,-3.2454,-3.2456,0,0,0,0,0,0,0,0,0,0,0,0,0,-3.2871,-3.2871,-3.2853,-3.2852,-3.2851,-3.2758,-3.2756,-3.2755,-3.2558,-3.2553,-3.2548,-3.2544,-3.2453,-3.2454,-3.2456,0,0,0,0,0,0,0,0,0,0,0,0,0,-3.2828,-3.2872,-3.2854,-3.2741,-3.273,-3.2758,-3.2756,-3.2755,-3.2559,-3.2553,-3.2547,-3.2541,-3.2452,-3.2454,-3.2456,-3.2588,0,0,-3.2462,-3.2463,0,0,0,0,0,0,0,0,-3.2831,-3.2828,-3.2759,-3.2749,-3.2736,-3.2663,-3.2728,-3.2699,-3.256,-3.2624,-3.2545,-3.2538,-3.2528,-3.2524,-3.2519,-3.2583,-3.2579,-3.2462,-3.2463,-3.2464,-3.2465,0,0,0,0,0,0,0,-3.2834,-3.2831,-3.2815,-3.2758,-3.2744,-3.2697,-3.2685,-3.2722,-3.2611,-3.2618,-3.2603,-3.2594,-3.2521,-3.2518,-3.2515,-3.2578,-3.2462,-3.2464,-3.2465,-3.2466,-3.2745,-3.2751,0,0,0,0,0,0,-3.2853,-3.2835,-3.2818,-3.2813,-3.277,-3.2702,-3.2688,-3.2693,-3.261,-3.2592,-3.26,-3.2586,-3.2517,-3.2513,-3.2511,-3.2659,-3.2464,-3.2466,-3.2467,-3.2739,-3.2746,-3.2753,0,0,0,0,0,0,-3.2854,-3.2853,-3.2822,-3.282,-3.2812,-3.2708,-3.2715,-3.2694,-3.269,-3.2596,-3.2576,-3.2616,-3.2512,-3.2509,-3.2569,-3.2653,-3.2467,-3.2468,-3.2731,-3.2741,-3.275,-3.2956,0,0,0,0,0,0,-3.2855,-3.2855,-3.2902,-3.2822,-3.2813,-3.2881,-3.272,-3.2696,-3.2693,-3.2674,-3.2606,-3.2589,-3.2507,-3.2568,-3.2572,-3.2652,-3.247,-3.2723,-3.2736,-3.2747,-3.2941,-3.2971,-3.2997,0,0,0,0,0,-3.2856,-3.2965,-3.2906,-3.2905,-3.287,-3.2886,-3.2881,-3.2783,-3.2701,-3.2748,-3.2688,-3.2591,-3.2644,-3.2576,-3.2578,-3.2661,-3.2718,-3.2732,-3.2746,-3.2929,-3.2965,-3.2996,0,0,0,0,0,0,-3.306,-3.2953,-3.2885,-3.2971,-3.2939,-3.2853,-3.2909,-3.2825,-3.2817,-3.28,-3.268,-3.2667,-3.2744,-3.2708,-3.2635,-3.2783,-3.2665,-3.2681,-3.2803,-3.2837,-3.2865,-3.2871,-3.2471,0,0,0,0,0,-3.3114,-3.3135,-3.3041,-3.3126,-3.3113,-3.3015,-3.3018,-3.2946,-3.2908,-3.2894,-3.2838,-3.2808,-3.2816,-3.2825,-3.2829,-3.2936,-3.2918,-3.2994,-3.3022,-3.3045,-3.3059,-3.3113,-3.3145,-3.28,-3.28,-3.2799,0,0,-3.3228,-3.3172,-3.3192,-3.3165,-3.3132,-3.3157,-3.3005,-3.3038,-3.3056,-3.29,-3.2952,-3.2912,-3.2869,-3.2954,-3.2988,-3.2927,-3.3151,-3.3063,-3.3083,-3.3084,-3.3131,-3.3164,-3.3193,-3.2809,-3.2808,-3.2806,0,0,-3.3446,-3.3407,-3.3472,-3.3441,-3.3392,-3.3326,-3.3343,-3.3269,-3.3235,-3.3286,-3.3169,-3.3191,-3.3209,-3.3183,-3.3173,-3.3384,-3.3294,-3.3389,-3.3534,-3.3587,-3.3615,-3.3638,-3.3712,-3.3741,-3.3404,-3.3404,-3.3404,0,-3.3594,-3.3625,-3.3517,-3.3557,-3.3549,-3.3408,-3.3474,-3.3451,-3.3407,-3.3405,-3.3337,-3.3356,-3.3318,-3.3394,-3.3446,-3.3443,-3.3458,-3.3395,-3.3619,-3.3642,-3.3662,-3.3732,-3.376,-3.3416,-3.3414,-3.3413,-3.3412,0,-3.3808,-3.3832,-3.3892,-3.385,-3.3849,-3.3903,-3.3805,-3.3817,-3.3745,-3.3688,-3.3742,-3.3692,-3.3682,-3.3695,-3.3626,-3.3762,-3.3725,-3.364,-3.3519,-3.3708,-3.3772,-3.3798,-3.3432,-3.3428,-3.3425,-3.3422,0,0,-3.415,-3.4048,-3.4072,-3.4051,-3.3987,-3.4004,-3.4053,-3.4042,-3.4054,-3.403,-3.4067,-3.4087,-3.4007,-3.3996,-3.3923,-3.3971,-3.414,-3.3879,-3.3876,-3.3928,-3.4286,-3.4349,-3.4382,-3.4081,-3.4086,-3.409,-3.4289,0,-3.4353,-3.4426,-3.4331,-3.4427,-3.4448,-3.4315,-3.4357,-3.4323,-3.4271,-3.4283,-3.4226,-3.4241,-3.4136,-3.4128,-3.4169,-3.4111,-3.421,-3.4095,-3.4115,-3.4118,-3.4128,-3.4415,-3.4482,-3.4672,-3.4313,-3.4318,-3.4321,0,-3.4598,-3.4583,-3.468,-3.461,-3.4615,-3.4654,-3.4636,-3.4649,-3.461,-3.4568,-3.4556,-3.4469,-3.4513,-3.4397,-3.4456,-3.438,-3.4383,-3.4356,-3.4361,-3.4358,-3.4229,-3.4418,-3.4731,-3.4759,-3.4359,-3.4356,-3.4353,0,-3.4836,-3.4841,-3.4898,-3.4886,-3.4806,-3.4836,-3.4805,-3.4759,-3.4758,-3.4744,-3.4743,-3.4735,-3.4731,-3.4727,-3.4641,-3.4564,-3.4711,-3.4588,-3.4678,-3.4681,-3.4714,-3.4712,-3.503,-3.472,-3.4719,-3.4719,-3.4718,0,-3.5072,-3.5136,-3.5004,-3.504,-3.5109,-3.5001,-3.5072,-3.5027,-3.4988,-3.5014,-3.49,-3.4928,-3.4812,-3.4828,-3.4761,-3.482,-3.482,-3.4788,-3.4769,-3.4797,-3.4801,-3.4796,-3.478,-3.4726,-3.4724,-3.4723,-3.4722,0,-3.5348,-3.5262,-3.5317,-3.5237,-3.5218,-3.5272,-3.5204,-3.5235,-3.5176,-3.5211,-3.5213,-3.5121,-3.5133,-3.5047,-3.5044,-3.4999,-3.509,-3.505,-3.5103,-3.509,-3.5185,-3.5177,-3.5509,-3.5547,-3.5215,-3.5218,-3.5221,0,-3.5502,-3.5548,-3.5473,-3.5481,-3.5455,-3.547,-3.5469,-3.5366,-3.5369,-3.5328,-3.5364,-3.5367,-3.5363,-3.5389,-3.5323,-3.5321,-3.5278,-3.5395,-3.5277,-3.5304,-3.5278,-3.5276,-3.528,-3.5419,-3.5423,-3.5427,-3.543,0,-3.5785,-3.5741,-3.5742,-3.5729,-3.573,-3.5716,-3.5694,-3.5708,-3.5596,-3.5606,-3.5616,-3.5613,-3.561,-3.5614,-3.5599,-3.5568,-3.5481,-3.5468,-3.5488,-3.5516,-3.5545,-3.5529,-3.5168,-3.546,-3.5457,-3.5455,-3.5453,-3.5452,-3.6004,-3.6038,-3.5991,-3.5996,-3.5969,-3.5951,-3.5975,-3.5919,-3.5926,-3.5913,-3.5853,-3.5874,-3.5835,-3.5804,-3.5782,-3.5799,-3.5742,-3.5773,-3.578,-3.5789,-3.5805,-3.5544,-3.5796,-3.5795,-3.5794,-3.5793,-3.5792,0,-3.6279,-3.6242,-3.6249,-3.622,-3.6226,-3.6142,-3.6114,-3.6124,-3.6144,-3.6113,-3.6112,-3.6124,-3.6129,-3.6064,-3.606,-3.6085,-3.6046,-3.6088,-3.6084,-3.6078,-3.5856,-3.5838,-3.612,-3.612,-3.612,-3.612,-3.612,-3.612,-3.6423,-3.6477,-3.6427,-3.6467,-3.643,-3.6448,-3.6439,-3.6423,-3.6398,-3.6416,-3.6419,-3.6376,-3.6332,-3.6324,-3.6324,-3.6305,-3.6309,-3.6365,-3.6332,-3.6126,-3.6094,-3.6064,-3.6046,-3.6367,-3.6367,-3.6552,-3.6554,-3.6555]},{"header":{"parameterUnit":"m.s-1","parameterCategory":1,"la1":30.2991,"la2":30.254,"lo1":-89.0895,"lo2":-89.0444,"dy":0.0017,"dx":0.0017,"nx":28,"ny":28,"refTime":"2023-10-02T03:00:00:Z","depth":0,"parameterNumber":3,"parameterNumberName":"V-component_of_WINDS"},"data":[0,0,0,0,0,0,0,0,0,0,0,0,0,0,0,0,0,0,0,0,0,0,0,0,0,0,0,0,0,0,0,0,0,0,0,0,0,0,0,0,0,0,0,0,0,0,0,0,0,0,0,0,0,0,0,0,0,0,-0.4591,-0.4594,0,-0.4849,-0.4852,-0.4855,-0.5017,-0.5018,-0.5018,-0.5019,-0.5285,-0.5291,-0.5297,0,0,0,0,0,0,0,0,0,0,0,0,0,-0.4241,-0.4247,-0.4591,-0.4594,-0.4598,-0.4848,-0.4852,-0.4855,-0.5016,-0.5018,-0.5019,-0.502,-0.5283,-0.529,-0.5298,0,0,0,0,0,0,0,0,0,0,0,0,0,-0.4435,-0.4249,-0.4591,-0.4708,-0.4721,-0.4847,-0.4852,-0.4856,-0.5016,-0.5018,-0.5019,-0.502,-0.5281,-0.529,-0.5299,-0.5329,0,0,-0.5327,-0.5331,0,0,0,0,0,0,0,0,-0.4424,-0.4448,-0.4688,-0.47,-0.4715,-0.4902,-0.4826,-0.5015,-0.5016,-0.4904,-0.5019,-0.5021,-0.5157,-0.5176,-0.5222,-0.5341,-0.5353,-0.5328,-0.5334,-0.5338,-0.5341,0,0,0,0,0,0,0,-0.4411,-0.4438,-0.4693,-0.4691,-0.4708,-0.4749,-0.4778,-0.4863,-0.502,-0.4914,-0.4926,-0.4955,-0.5164,-0.5212,-0.5229,-0.5357,-0.5328,-0.5336,-0.5342,-0.5346,-0.5514,-0.5513,0,0,0,0,0,0,-0.4378,-0.4426,-0.4685,-0.4701,-0.457,-0.4754,-0.4786,-0.4841,-0.5019,-0.5048,-0.4953,-0.4961,-0.5196,-0.5218,-0.5239,-0.5286,-0.5338,-0.5347,-0.5352,-0.5515,-0.5514,-0.5513,0,0,0,0,0,0,-0.437,-0.44,-0.4675,-0.4567,-0.4605,-0.4758,-0.4818,-0.4845,-0.4893,-0.5049,-0.5078,-0.4973,-0.5198,-0.5226,-0.5305,-0.5298,-0.5351,-0.5359,-0.5517,-0.5515,-0.5513,-0.538,0,0,0,0,0,0,-0.4359,-0.4396,-0.4408,-0.4566,-0.461,-0.4736,-0.4818,-0.4849,-0.4908,-0.4921,-0.5075,-0.5102,-0.5201,-0.529,-0.5314,-0.5311,-0.5367,-0.5518,-0.5516,-0.5514,-0.5385,-0.5374,-0.5363,0,0,0,0,0,-0.4346,-0.4361,-0.4408,-0.4439,-0.4629,-0.4735,-0.476,-0.4873,-0.4907,-0.4921,-0.5021,-0.5097,-0.5294,-0.5297,-0.5326,-0.5325,-0.5519,-0.5516,-0.5514,-0.539,-0.5376,-0.5364,0,0,0,0,0,0,-0.42,-0.4384,-0.4438,-0.4505,-0.4602,-0.4762,-0.4784,-0.4854,-0.4946,-0.4954,-0.5091,-0.5124,-0.519,-0.5266,-0.5266,-0.5364,-0.5415,-0.5418,-0.5312,-0.5299,-0.5288,-0.5269,-0.5374,0,0,0,0,0,-0.4175,-0.4245,-0.4403,-0.4446,-0.4492,-0.4628,-0.4679,-0.4757,-0.4865,-0.4908,-0.5014,-0.5116,-0.5201,-0.5254,-0.5342,-0.5397,-0.5433,-0.5411,-0.5399,-0.539,-0.5391,-0.5426,-0.5418,-0.5504,-0.5504,-0.5504,0,0,-0.4126,-0.4235,-0.4271,-0.4419,-0.4505,-0.4574,-0.4663,-0.4733,-0.4787,-0.4919,-0.5,-0.5081,-0.5204,-0.5271,-0.5306,-0.5337,-0.5375,-0.5387,-0.5377,-0.5385,-0.5422,-0.5414,-0.5406,-0.5503,-0.5503,-0.5503,0,0,-0.4071,-0.416,-0.4206,-0.4289,-0.4416,-0.4507,-0.4517,-0.4666,-0.4724,-0.4808,-0.4908,-0.4974,-0.5118,-0.5201,-0.5262,-0.5237,-0.531,-0.5262,-0.5204,-0.5237,-0.523,-0.5224,-0.5215,-0.521,-0.5262,-0.5262,-0.5262,0,-0.3993,-0.4102,-0.422,-0.4285,-0.4347,-0.4468,-0.4516,-0.4591,-0.4741,-0.4781,-0.4812,-0.4995,-0.5087,-0.5175,-0.5168,-0.5214,-0.523,-0.5245,-0.5221,-0.5217,-0.5214,-0.5206,-0.5203,-0.5255,-0.5256,-0.5257,-0.5257,0,-0.4,-0.4073,-0.4095,-0.4235,-0.43,-0.4355,-0.4482,-0.4534,-0.4606,-0.4693,-0.4776,-0.489,-0.5002,-0.5029,-0.51,-0.5127,-0.5142,-0.5195,-0.525,-0.5196,-0.5192,-0.519,-0.5245,-0.5248,-0.525,-0.5251,0,0,-0.3861,-0.4064,-0.407,-0.4135,-0.4284,-0.4344,-0.4404,-0.4513,-0.4554,-0.4653,-0.4708,-0.4826,-0.4876,-0.4945,-0.5027,-0.5055,-0.5027,-0.5106,-0.5111,-0.5087,-0.5064,-0.5022,-0.5017,-0.5076,-0.5076,-0.5076,-0.5053,0,-0.3828,-0.3943,-0.405,-0.4126,-0.4196,-0.4312,-0.4365,-0.4462,-0.4544,-0.4616,-0.4708,-0.4789,-0.4849,-0.4892,-0.4925,-0.5023,-0.5025,-0.5027,-0.5129,-0.5131,-0.5095,-0.5015,-0.4973,-0.4945,-0.5052,-0.5052,-0.5052,0,-0.3806,-0.3897,-0.3979,-0.4121,-0.4154,-0.4199,-0.4307,-0.4374,-0.4486,-0.4545,-0.462,-0.4707,-0.4777,-0.4823,-0.4922,-0.4921,-0.4969,-0.5024,-0.5025,-0.504,-0.5088,-0.5027,-0.494,-0.4935,-0.5051,-0.5051,-0.5051,0,-0.3696,-0.384,-0.3908,-0.396,-0.4126,-0.4156,-0.4227,-0.4341,-0.4398,-0.4493,-0.4532,-0.4633,-0.4688,-0.4765,-0.4876,-0.4899,-0.4963,-0.5018,-0.5013,-0.501,-0.5022,-0.502,-0.494,-0.5052,-0.5052,-0.5052,-0.5052,0,-0.3648,-0.3694,-0.3861,-0.3902,-0.3957,-0.4081,-0.4132,-0.4213,-0.4313,-0.4373,-0.4479,-0.4533,-0.4677,-0.4748,-0.4836,-0.4904,-0.4928,-0.4977,-0.5,-0.4968,-0.4962,-0.5002,-0.5007,-0.5051,-0.5051,-0.5051,-0.5052,0,-0.3535,-0.3649,-0.373,-0.3881,-0.3919,-0.3953,-0.4082,-0.4127,-0.4215,-0.429,-0.4314,-0.4453,-0.4542,-0.466,-0.4787,-0.4846,-0.4903,-0.4939,-0.4864,-0.4878,-0.4866,-0.4865,-0.481,-0.4809,-0.4919,-0.4918,-0.4917,0,-0.3497,-0.3535,-0.3689,-0.3736,-0.3803,-0.3877,-0.3937,-0.406,-0.4117,-0.4247,-0.4276,-0.4374,-0.4458,-0.4595,-0.4708,-0.4805,-0.4844,-0.4818,-0.4859,-0.4825,-0.4844,-0.484,-0.4844,-0.4807,-0.4805,-0.4804,-0.4803,0,-0.3418,-0.3472,-0.3553,-0.3652,-0.372,-0.3805,-0.3895,-0.3927,-0.4069,-0.4129,-0.422,-0.4285,-0.4414,-0.4509,-0.4621,-0.4695,-0.4772,-0.4788,-0.4793,-0.476,-0.4716,-0.474,-0.4837,-0.479,-0.4791,-0.4792,-0.4793,-0.4793,-0.3342,-0.3381,-0.3494,-0.358,-0.3661,-0.3742,-0.3791,-0.3884,-0.3963,-0.4076,-0.4144,-0.4233,-0.4345,-0.4503,-0.4573,-0.4645,-0.4675,-0.4681,-0.4683,-0.4682,-0.4671,-0.4703,-0.4666,-0.4667,-0.4667,-0.4668,-0.4668,0,-0.3269,-0.3347,-0.3425,-0.3546,-0.3614,-0.3679,-0.3782,-0.3834,-0.3911,-0.4008,-0.4088,-0.4193,-0.4286,-0.4404,-0.4505,-0.454,-0.4578,-0.4562,-0.4561,-0.4577,-0.4639,-0.4625,-0.453,-0.453,-0.453,-0.453,-0.453,-0.453,-0.3238,-0.3306,-0.3373,-0.3482,-0.3562,-0.3648,-0.3701,-0.3777,-0.3855,-0.3967,-0.4044,-0.412,-0.4226,-0.4335,-0.4423,-0.4456,-0.4488,-0.4462,-0.4505,-0.456,-0.4573,-0.4584,-0.4572,-0.4467,-0.4467,-0.4437,-0.4437,-0.4437]}]]